This demonstration page uses our WeatherBlox Daily Observations layout. Learn more.

Left ArrowRight Arrow

41.86663, -103.66717

Hourly Observations for November 17, 2021

Temp ( °F °C ) Dew Point ( °F °C ) Humidity (%) Winds ( mph kmh ) Pressure ( in mb ) Visibility ( mi km ) Precip ( " mm )
12:53 am 00:53 Clear 33 0.6 7 -13.9 33 33 WNW 9 15 30.04 1017 10 16 0.00 0.00
1:53 am 01:53 Clear 31 -0.6 8 -13.3 38 38 WNW 10 17 30.09 1019 10 16 0.00 0.00
2:53 am 02:53 Clear 30 -1.1 10 -12.2 43 43 W 8 13 30.13 1020 10 16 0.00 0.00
3:53 am 03:53 Cloudy 28 -2.2 11 -11.7 49 49 WNW 9 15 30.13 1020 10 16 0.00 0.00
4:53 am 04:53 Partly Cloudy 25 -3.9 12 -11.1 58 58 WNW 8 13 30.18 1022 10 16 0.00 0.00
5:53 am 05:53 Cloudy 27 -2.8 13 -10.6 55 55 WNW 6 9 30.23 1024 10 16 0.00 0.00
6:53 am 06:53 Cloudy 27 -2.8 10 -12.2 49 49 WNW 8 13 30.27 1025 10 16 0.00 0.00
7:53 am 07:53 Mostly Cloudy 30 -1.1 8 -13.3 39 39 NW 10 17 30.31 1026 10 16 0.00 0.00
8:53 am 08:53 Sunny 34 1.1 9 -12.8 35 35 NW 14 22 30.32 1027 10 16 0.00 0.00
9:53 am 09:53 Sunny 37 2.8 8 -13.3 30 30 NNW 25 41 30.32 1027 10 16 0.00 0.00
10:53 am 10:53 Sunny 38 3.3 8 -13.3 29 29 NW 22 35 30.34 1028 10 16 0.00 0.00
11:53 am 11:53 Sunny 39 3.9 7 -13.9 26 26 NW 17 28 30.31 1026 10 16 0.00 0.00
12:53 pm 12:53 Sunny 40 4.4 6 -14.4 24 24 NW 28 44 30.30 1026 10 16 0.00 0.00
1:53 pm 13:53 Sunny 40 4.4 5 -15 23 23 NW 24 39 30.29 1026 10 16 0.00 0.00
2:53 pm 14:53 Sunny 40 4.4 5 -15 23 23 NW 21 33 30.31 1027 10 16 0.00 0.00
3:53 pm 15:53 Sunny 38 3.3 7 -13.9 27 27 NW 10 17 30.34 1027 10 16 0.00 0.00
4:53 pm 16:53 Clear 29 -1.7 7 -13.9 39 39 NNW 6 9 30.38 1029 10 16 0.00 0.00
5:53 pm 17:53 Clear 28 -2.2 7 -13.9 41 41 N 5 7 30.40 1029 10 16 0.00 0.00
6:53 pm 18:53 Clear 22 -5.6 7 -13.9 52 52 Calm 30.44 1031 10 16 0.00 0.00
7:53 pm 19:53 Clear 20 -6.7 7 -13.9 57 57 WNW 5 7 30.46 1032 10 16 0.00 0.00
8:53 pm 20:53 Clear 19 -7.2 7 -13.9 59 59 NNW 7 11 30.46 1031 10 16 0.00 0.00
9:53 pm 21:53 Clear 20 -6.7 7 -13.9 57 57 NNW 3 6 30.46 1032 10 16 0.00 0.00
10:53 pm 22:53 Clear 17 -8.3 6 -14.4 62 62 NNW 6 9 30.48 1032 10 16 0.00 0.00
11:53 pm 23:53 Clear 18 -7.8 6 -14.4 59 59 NW 5 7 30.48 1032 10 16 0.00 0.00

Powered by AerisWeather